View from above orbital plane
|
View from above satellite
|
Ground track
|
The orbit data is extracted from the following two-line orbital elements,
1 23787U 96009A 21026.23785646 .00000019 00000-0 42924-4 0 9998
2 23787 82.5786 118.9908 0011062 189.1937 170.8919 12.64044741150665
Epoch (UTC): | 26 January 2021 05:42:30 |
Eccentricity: | 0.0011062 |
inclination: | 82.5786° |
perigee height: | 1397 km |
apogee height: | 1415 km |
right ascension of ascending node: | 118.9908° |
argument of perigee: | 189.1937° |
revolutions per day: | 12.64044741 |
mean anomaly at epoch: | 170.8919° |
orbit number at epoch: | 15066 |
The dashed part of the orbit path shows where the satellite is in the earth's shadow,
|
|